OK85N LKPR-LDSP

Flight info

Callsign OK85N
Flight time N/A
Altitude 27000
Route VOZ5N VOZ DCT PISAM DCT PETOV DCT NIVES DCT NUPSO NUPSO1Z
Aircraft B60T/L-SDFGRY/C

Departure

Time 2026-05-08 07:25
Airport Václav Havel Airport Prague (LKPR)

Arrival

Time N/A
Airport Split Saint Jerome Airport (LDSP)
Time Latitude Longitude Altitude Speed Heading
2026-05-08 07:19 50.09829 14.28504 1179 ft 0 kts 168°
2026-05-08 07:20 50.09823 14.28506 1207 ft 5 kts 168°
2026-05-08 07:20 50.09791 14.28509 1207 ft 5 kts 221°
2026-05-08 07:20 50.09783 14.28468 1207 ft 0 kts 272°
2026-05-08 07:20 50.09783 14.28465 1207 ft 1 kts 272°
2026-05-08 07:21 50.09831 14.28450 1207 ft 14 kts 351°
2026-05-08 07:21 50.09900 14.28414 1207 ft 10 kts 318°
2026-05-08 07:21 50.09942 14.28286 1194 ft 16 kts 300°
2026-05-08 07:21 50.09996 14.28127 1183 ft 6 kts 289°
2026-05-08 07:22 50.09985 14.28047 1182 ft 7 kts 229°
2026-05-08 07:22 50.09969 14.28025 1182 ft 2 kts 235°
2026-05-08 07:22 50.09973 14.28004 1181 ft 3 kts 308°
2026-05-08 07:22 50.09993 14.27944 1178 ft 3 kts 272°
2026-05-08 07:23 50.09989 14.27858 1180 ft 13 kts 263°
2026-05-08 07:23 50.09970 14.27663 1183 ft 23 kts 263°
2026-05-08 07:23 50.09944 14.27385 1190 ft 28 kts 262°
2026-05-08 07:23 50.09918 14.27120 1196 ft 21 kts 264°
2026-05-08 07:24 50.09897 14.26900 1200 ft 20 kts 264°
2026-05-08 07:24 50.09877 14.26679 1201 ft 19 kts 262°
2026-05-08 07:24 50.09868 14.26492 1198 ft 17 kts 278°
2026-05-08 07:24 50.09885 14.26433 1195 ft 0 kts 305°
2026-05-08 07:25 50.09984 14.26225 1190 ft 65 kts 307°
2026-05-08 07:25 50.10405 14.25359 1324 ft 119 kts 309°
2026-05-08 07:25 50.11422 14.22668 2737 ft 151 kts 277°
2026-05-08 07:26 50.11133 14.21147 3699 ft 150 kts 231°
2026-05-08 07:26 50.10227 14.20399 4598 ft 155 kts 188°
2026-05-08 07:26 50.09142 14.20666 5292 ft 162 kts 167°
2026-05-08 07:26 50.08059 14.21051 5979 ft 161 kts 172°
2026-05-08 07:27 50.06964 14.21379 6677 ft 160 kts 172°
2026-05-08 07:27 50.05867 14.21709 7355 ft 161 kts 172°
2026-05-08 07:27 50.04762 14.22034 8009 ft 161 kts 173°
2026-05-08 07:27 50.03661 14.22345 8684 ft 161 kts 173°
2026-05-08 07:28 50.02556 14.22657 9343 ft 162 kts 173°
2026-05-08 07:28 50.01452 14.22970 9958 ft 161 kts 173°
2026-05-08 07:28 50.00352 14.23283 10488 ft 161 kts 173°
2026-05-08 07:28 49.99250 14.23597 11006 ft 161 kts 173°
2026-05-08 07:29 49.98156 14.23907 11529 ft 161 kts 174°
2026-05-08 07:29 49.97051 14.24219 12067 ft 161 kts 174°
2026-05-08 07:29 49.95947 14.24533 12593 ft 161 kts 174°
2026-05-08 07:29 49.94843 14.24847 13131 ft 161 kts 174°
2026-05-08 07:30 49.93737 14.25159 13647 ft 163 kts 175°
2026-05-08 07:30 49.92587 14.25478 14034 ft 171 kts 175°
2026-05-08 07:30 49.91399 14.25808 14429 ft 175 kts 174°
2026-05-08 07:30 49.90192 14.26146 14868 ft 177 kts 174°
2026-05-08 07:31 49.88974 14.26488 15308 ft 179 kts 174°
2026-05-08 07:31 49.87746 14.26833 15742 ft 179 kts 174°
2026-05-08 07:31 49.86556 14.27476 16169 ft 185 kts 153°
2026-05-08 07:31 49.85624 14.28826 16589 ft 190 kts 127°
2026-05-08 07:32 49.84871 14.30501 17025 ft 189 kts 130°
2026-05-08 07:32 49.84060 14.32114 17469 ft 189 kts 131°
2026-05-08 07:32 49.83248 14.33720 17904 ft 189 kts 131°
2026-05-08 07:32 49.82443 14.35334 18341 ft 189 kts 130°
2026-05-08 07:33 49.81642 14.36958 18730 ft 190 kts 130°
2026-05-08 07:33 49.80841 14.38588 19107 ft 190 kts 130°
2026-05-08 07:33 49.80043 14.40215 19475 ft 190 kts 130°
2026-05-08 07:33 49.79243 14.41847 19847 ft 190 kts 130°
2026-05-08 07:34 49.78443 14.43478 20217 ft 190 kts 130°
2026-05-08 07:34 49.77642 14.45110 20590 ft 191 kts 130°
2026-05-08 07:34 49.76839 14.46744 20963 ft 191 kts 130°
2026-05-08 07:34 49.76045 14.48359 21345 ft 191 kts 130°
2026-05-08 07:35 49.75237 14.50002 21730 ft 191 kts 130°
2026-05-08 07:35 49.74431 14.51639 22096 ft 191 kts 130°
2026-05-08 07:35 49.73624 14.53277 22461 ft 192 kts 130°
2026-05-08 07:35 49.72814 14.54918 22811 ft 192 kts 130°
2026-05-08 07:36 49.72002 14.56565 23144 ft 193 kts 130°
2026-05-08 07:36 49.71197 14.58196 23495 ft 193 kts 131°
2026-05-08 07:36 49.70379 14.59852 23819 ft 194 kts 131°
2026-05-08 07:36 49.69554 14.61512 24131 ft 195 kts 133°
2026-05-08 07:37 49.68658 14.63089 24449 ft 194 kts 139°
2026-05-08 07:37 49.67710 14.64577 24754 ft 195 kts 139°
2026-05-08 07:37 49.66763 14.66082 25045 ft 197 kts 139°
2026-05-08 07:37 49.65765 14.67661 25089 ft 213 kts 139°
2026-05-08 07:38 49.64688 14.69360 25105 ft 228 kts 138°
2026-05-08 07:38 49.63546 14.71164 25108 ft 242 kts 138°
2026-05-08 07:38 49.62334 14.73077 25102 ft 256 kts 138°
2026-05-08 07:38 49.61077 14.75059 25098 ft 267 kts 137°
2026-05-08 07:39 49.59758 14.77139 25096 ft 275 kts 137°
2026-05-08 07:39 49.58406 14.79272 25093 ft 281 kts 137°
2026-05-08 07:39 49.57030 14.81441 25093 ft 285 kts 137°
2026-05-08 07:39 49.55635 14.83639 25093 ft 288 kts 137°
2026-05-08 07:40 49.54223 14.85848 25093 ft 290 kts 139°
2026-05-08 07:40 49.52663 14.87799 25094 ft 288 kts 150°
2026-05-08 07:40 49.50936 14.89342 25093 ft 287 kts 156°
2026-05-08 07:40 49.49163 14.90778 25094 ft 288 kts 156°
2026-05-08 07:41 49.47387 14.92200 25091 ft 288 kts 156°
2026-05-08 07:41 49.45608 14.93622 25093 ft 288 kts 156°
2026-05-08 07:41 49.43828 14.95049 25086 ft 288 kts 157°
2026-05-08 07:41 49.42064 14.96466 25092 ft 289 kts 157°
2026-05-08 07:42 49.40280 14.97903 25092 ft 290 kts 157°
2026-05-08 07:42 49.38493 14.99343 25094 ft 290 kts 156°
2026-05-08 07:42 49.36702 15.00788 25094 ft 291 kts 156°
2026-05-08 07:42 49.34913 15.02230 25094 ft 290 kts 156°
2026-05-08 07:43 49.33123 15.03674 25092 ft 290 kts 156°
2026-05-08 07:43 49.31333 15.05116 25094 ft 290 kts 156°
2026-05-08 07:43 49.29546 15.06554 25095 ft 290 kts 157°
2026-05-08 07:43 49.27762 15.07988 25093 ft 290 kts 157°
2026-05-08 07:44 49.25976 15.09422 25090 ft 290 kts 157°
2026-05-08 07:44 49.24189 15.10857 25090 ft 290 kts 157°
2026-05-08 07:44 49.22426 15.12271 25089 ft 290 kts 157°
2026-05-08 07:44 49.20639 15.13705 25088 ft 290 kts 157°
2026-05-08 07:45 49.18851 15.15136 25081 ft 289 kts 157°
2026-05-08 07:45 49.17064 15.16565 25086 ft 289 kts 157°
2026-05-08 07:45 49.15278 15.17994 25089 ft 289 kts 157°
2026-05-08 07:45 49.13509 15.19407 25084 ft 289 kts 157°
2026-05-08 07:46 49.11723 15.20833 25085 ft 289 kts 157°
2026-05-08 07:46 49.09936 15.22259 25084 ft 289 kts 157°
2026-05-08 07:46 49.08150 15.23681 25085 ft 289 kts 157°
2026-05-08 07:46 49.06364 15.25103 25084 ft 289 kts 157°
2026-05-08 07:47 49.04578 15.26524 25087 ft 289 kts 157°
2026-05-08 07:47 49.02796 15.27942 25090 ft 289 kts 157°
2026-05-08 07:47 49.01037 15.29338 25087 ft 289 kts 157°
2026-05-08 07:47 48.99252 15.30756 25087 ft 288 kts 157°
2026-05-08 07:48 48.97469 15.32169 25085 ft 288 kts 157°
2026-05-08 07:48 48.95688 15.33581 25086 ft 288 kts 157°
2026-05-08 07:48 48.93905 15.34993 25074 ft 288 kts 158°
2026-05-08 07:48 48.92123 15.36403 25080 ft 288 kts 158°
2026-05-08 07:49 48.90362 15.37761 25084 ft 286 kts 161°
2026-05-08 07:49 48.88506 15.38766 25087 ft 281 kts 171°
2026-05-08 07:49 48.86576 15.39374 25089 ft 279 kts 176°
2026-05-08 07:49 48.84687 15.39836 25088 ft 278 kts 177°
2026-05-08 07:50 48.82770 15.40275 25086 ft 279 kts 177°
2026-05-08 07:50 48.80849 15.40711 25083 ft 279 kts 177°
2026-05-08 07:50 48.78930 15.41151 25081 ft 279 kts 177°
2026-05-08 07:50 48.77012 15.41596 25082 ft 279 kts 177°
2026-05-08 07:51 48.75096 15.42045 25087 ft 278 kts 177°
2026-05-08 07:51 48.73178 15.42498 25087 ft 278 kts 177°
2026-05-08 07:51 48.71287 15.42947 25087 ft 278 kts 177°
2026-05-08 07:51 48.69372 15.43402 25076 ft 278 kts 177°
2026-05-08 07:52 48.67460 15.43857 25088 ft 277 kts 177°
2026-05-08 07:52 48.66197 15.44157 25082 ft 277 kts 177°
2026-05-08 07:52 48.64287 15.44610 25087 ft 277 kts 177°
2026-05-08 07:52 48.62378 15.45063 25095 ft 277 kts 177°
2026-05-08 07:53 48.59852 15.45661 25092 ft 277 kts 177°
2026-05-08 07:53 48.58565 15.45966 25091 ft 277 kts 177°
2026-05-08 07:53 48.56655 15.46418 25092 ft 277 kts 177°
2026-05-08 07:53 48.54769 15.46865 25093 ft 277 kts 177°
2026-05-08 07:54 48.52861 15.47316 25086 ft 277 kts 177°
2026-05-08 07:54 48.50954 15.47766 25093 ft 277 kts 177°
2026-05-08 07:54 48.49053 15.48215 25088 ft 277 kts 177°
2026-05-08 07:54 48.47142 15.48666 25084 ft 277 kts 177°
2026-05-08 07:55 48.45241 15.49116 25087 ft 276 kts 177°
2026-05-08 07:55 48.43339 15.49563 25088 ft 276 kts 177°
2026-05-08 07:55 48.41443 15.50009 25090 ft 276 kts 177°
2026-05-08 07:55 48.39544 15.50455 25097 ft 276 kts 178°
2026-05-08 07:56 48.37645 15.50902 25091 ft 276 kts 178°
2026-05-08 07:56 48.35752 15.51346 25090 ft 275 kts 178°
2026-05-08 07:56 48.33853 15.51790 25098 ft 276 kts 177°
2026-05-08 07:56 48.31958 15.52234 25098 ft 276 kts 177°
2026-05-08 07:57 48.30084 15.52674 25098 ft 276 kts 177°
2026-05-08 07:57 48.28188 15.53118 25095 ft 276 kts 177°
2026-05-08 07:57 48.26287 15.53563 25095 ft 276 kts 177°
2026-05-08 07:57 48.24383 15.54008 25085 ft 275 kts 178°
2026-05-08 07:58 48.22486 15.54452 25092 ft 275 kts 178°
2026-05-08 07:58 48.20622 15.54887 25093 ft 274 kts 178°
2026-05-08 07:58 48.18734 15.55327 25092 ft 274 kts 178°
2026-05-08 07:58 48.16847 15.55767 25091 ft 274 kts 178°
2026-05-08 07:59 48.14962 15.56206 25095 ft 274 kts 178°
2026-05-08 07:59 48.13075 15.56645 25095 ft 274 kts 178°
2026-05-08 07:59 48.11187 15.57083 25096 ft 274 kts 178°
2026-05-08 07:59 48.09299 15.57521 25095 ft 274 kts 178°
2026-05-08 08:00 48.07409 15.57959 25096 ft 274 kts 178°
2026-05-08 08:00 48.05525 15.58398 25098 ft 274 kts 178°
2026-05-08 08:00 48.03645 15.58834 25098 ft 274 kts 178°
2026-05-08 08:00 48.01756 15.59272 25094 ft 275 kts 178°
2026-05-08 08:01 47.99864 15.59715 25092 ft 275 kts 178°
2026-05-08 08:01 47.97991 15.60141 25102 ft 276 kts 178°
2026-05-08 08:01 47.96082 15.60581 25109 ft 278 kts 178°
2026-05-08 08:01 47.94154 15.61025 25107 ft 280 kts 178°
2026-05-08 08:02 47.92223 15.61470 25103 ft 281 kts 177°
2026-05-08 08:02 47.90278 15.61920 25099 ft 282 kts 177°
2026-05-08 08:02 47.88336 15.62366 25099 ft 282 kts 178°
2026-05-08 08:02 47.86393 15.62813 25093 ft 282 kts 177°
2026-05-08 08:03 47.84454 15.63260 25096 ft 281 kts 178°
2026-05-08 08:03 47.82544 15.63699 25099 ft 281 kts 178°
2026-05-08 08:03 47.80613 15.64144 25101 ft 281 kts 178°
2026-05-08 08:03 47.78681 15.64589 25103 ft 281 kts 178°
2026-05-08 08:04 47.76745 15.65033 25104 ft 281 kts 178°
2026-05-08 08:04 47.74814 15.65475 25101 ft 280 kts 178°
2026-05-08 08:04 47.72881 15.65916 25105 ft 280 kts 178°
2026-05-08 08:04 47.70952 15.66357 25110 ft 281 kts 178°
2026-05-08 08:05 47.69013 15.66800 25111 ft 282 kts 177°
2026-05-08 08:05 47.67074 15.67244 25106 ft 282 kts 178°
2026-05-08 08:05 47.65127 15.67689 25103 ft 282 kts 178°
2026-05-08 08:05 47.63184 15.68133 25104 ft 282 kts 178°
2026-05-08 08:06 47.61265 15.68570 25101 ft 282 kts 178°
2026-05-08 08:06 47.59321 15.69012 25100 ft 282 kts 178°
2026-05-08 08:06 47.57380 15.69454 25103 ft 282 kts 178°
2026-05-08 08:06 47.55435 15.69897 25094 ft 282 kts 178°
2026-05-08 08:07 47.53496 15.70338 25099 ft 282 kts 178°
2026-05-08 08:07 47.51556 15.70779 25100 ft 282 kts 178°
2026-05-08 08:07 47.49617 15.71220 25098 ft 282 kts 178°
2026-05-08 08:07 47.47673 15.71660 25096 ft 281 kts 178°
2026-05-08 08:08 47.45740 15.72102 25099 ft 281 kts 178°
2026-05-08 08:08 47.43828 15.72534 25100 ft 282 kts 178°
2026-05-08 08:08 47.41891 15.72972 25095 ft 281 kts 178°
2026-05-08 08:08 47.39955 15.73409 25099 ft 281 kts 178°
2026-05-08 08:09 47.38021 15.73846 25099 ft 281 kts 178°
2026-05-08 08:09 47.36084 15.74283 25098 ft 281 kts 178°
2026-05-08 08:09 47.34142 15.74720 25087 ft 281 kts 178°
2026-05-08 08:09 47.32207 15.75155 25088 ft 281 kts 178°
2026-05-08 08:10 47.30300 15.75585 25094 ft 280 kts 178°
2026-05-08 08:10 47.28370 15.76021 25091 ft 280 kts 178°
2026-05-08 08:10 47.26444 15.76454 25095 ft 279 kts 178°
2026-05-08 08:10 47.24522 15.76887 25093 ft 279 kts 178°
2026-05-08 08:11 47.22606 15.77320 25092 ft 278 kts 178°
2026-05-08 08:11 47.20696 15.77751 25103 ft 278 kts 179°
2026-05-08 08:11 47.18786 15.78178 25103 ft 278 kts 179°
2026-05-08 08:11 47.16864 15.78608 25109 ft 279 kts 178°
2026-05-08 08:12 47.14971 15.79031 25101 ft 279 kts 179°
2026-05-08 08:12 47.13046 15.79460 25099 ft 280 kts 178°
2026-05-08 08:12 47.11122 15.79890 25089 ft 279 kts 179°
2026-05-08 08:12 47.09195 15.80321 25097 ft 280 kts 179°
2026-05-08 08:13 47.07271 15.80751 25096 ft 280 kts 179°
2026-05-08 08:13 47.05343 15.81181 25099 ft 280 kts 179°
2026-05-08 08:13 47.03419 15.81611 25099 ft 280 kts 179°
2026-05-08 08:13 47.01489 15.82040 25105 ft 280 kts 179°
2026-05-08 08:14 46.99586 15.82464 25100 ft 280 kts 179°
2026-05-08 08:14 46.97661 15.82892 25101 ft 280 kts 179°
2026-05-08 08:14 46.95733 15.83321 25101 ft 280 kts 179°
2026-05-08 08:14 46.93808 15.83749 25104 ft 280 kts 179°
2026-05-08 08:15 46.91884 15.84177 25101 ft 280 kts 179°
2026-05-08 08:15 46.89960 15.84602 25085 ft 279 kts 179°
2026-05-08 08:15 46.88040 15.85028 25092 ft 279 kts 179°
2026-05-08 08:15 46.86123 15.85454 25098 ft 279 kts 179°
2026-05-08 08:16 46.84203 15.85880 25102 ft 279 kts 179°
2026-05-08 08:16 46.82285 15.86305 25107 ft 279 kts 179°
2026-05-08 08:16 46.80358 15.86730 25106 ft 280 kts 179°
2026-05-08 08:16 46.78457 15.87148 25105 ft 280 kts 179°
2026-05-08 08:17 46.76529 15.87574 25102 ft 280 kts 179°
2026-05-08 08:17 46.74600 15.88001 25099 ft 280 kts 179°
2026-05-08 08:17 46.72670 15.88426 25098 ft 280 kts 179°
2026-05-08 08:17 46.70742 15.88851 25098 ft 280 kts 179°
2026-05-08 08:18 46.68816 15.89275 25076 ft 280 kts 179°
2026-05-08 08:18 46.66893 15.89698 25089 ft 279 kts 179°
2026-05-08 08:18 46.64971 15.90121 25095 ft 279 kts 179°
2026-05-08 08:18 46.63052 15.90543 25098 ft 279 kts 179°
2026-05-08 08:19 46.61130 15.90964 25103 ft 279 kts 179°
2026-05-08 08:19 46.59207 15.91386 25102 ft 279 kts 179°
2026-05-08 08:19 46.57280 15.91808 25103 ft 280 kts 179°
2026-05-08 08:19 46.55355 15.92230 25101 ft 280 kts 179°
2026-05-08 08:20 46.53454 15.92646 25103 ft 280 kts 179°
2026-05-08 08:20 46.51523 15.93067 25102 ft 280 kts 179°
2026-05-08 08:20 46.49596 15.93489 25099 ft 280 kts 179°
2026-05-08 08:20 46.47667 15.93910 25095 ft 280 kts 179°
2026-05-08 08:21 46.45743 15.94330 25089 ft 279 kts 179°
2026-05-08 08:21 46.43819 15.94750 25093 ft 279 kts 179°
2026-05-08 08:21 46.41888 15.95171 25095 ft 279 kts 179°
2026-05-08 08:21 46.39988 15.95585 25096 ft 279 kts 179°
2026-05-08 08:22 46.38060 15.96005 25098 ft 280 kts 179°
2026-05-08 08:22 46.36133 15.96424 25099 ft 280 kts 179°
2026-05-08 08:22 46.34203 15.96843 25099 ft 280 kts 179°
2026-05-08 08:22 46.32269 15.97255 25100 ft 279 kts 180°
2026-05-08 08:23 46.30343 15.97464 25099 ft 276 kts 186°
2026-05-08 08:23 46.28454 15.97445 25098 ft 274 kts 189°
2026-05-08 08:23 46.26545 15.97333 25102 ft 274 kts 190°
2026-05-08 08:23 46.24641 15.97195 25088 ft 274 kts 189°
2026-05-08 08:24 46.22733 15.97053 25092 ft 274 kts 189°
2026-05-08 08:24 46.20850 15.96916 25094 ft 274 kts 189°
2026-05-08 08:24 46.18946 15.96783 25095 ft 274 kts 189°
2026-05-08 08:24 46.17039 15.96653 25095 ft 274 kts 189°
2026-05-08 08:25 46.15133 15.96527 25098 ft 274 kts 189°
2026-05-08 08:25 46.13226 15.96403 25101 ft 274 kts 189°
2026-05-08 08:25 46.11318 15.96281 25099 ft 274 kts 189°
2026-05-08 08:25 46.09412 15.96158 25100 ft 274 kts 189°
2026-05-08 08:26 46.07504 15.96035 25096 ft 274 kts 189°
2026-05-08 08:26 46.05596 15.95914 25096 ft 274 kts 189°
2026-05-08 08:26 46.03693 15.95791 25091 ft 273 kts 188°
2026-05-08 08:26 46.01790 15.95671 25094 ft 273 kts 188°
2026-05-08 08:27 45.99914 15.95552 25099 ft 273 kts 188°
2026-05-08 08:27 45.98009 15.95432 25098 ft 273 kts 188°
2026-05-08 08:27 45.96112 15.95311 25102 ft 273 kts 188°
2026-05-08 08:27 45.94211 15.95189 25102 ft 273 kts 188°
2026-05-08 08:28 45.92334 15.95069 25101 ft 273 kts 188°
2026-05-08 08:28 45.90437 15.94948 25097 ft 272 kts 188°
2026-05-08 08:28 45.88538 15.94830 25107 ft 273 kts 188°
2026-05-08 08:28 45.86636 15.94709 25101 ft 273 kts 188°
2026-05-08 08:29 45.84745 15.94585 25093 ft 271 kts 188°
2026-05-08 08:29 45.82861 15.94468 25095 ft 271 kts 188°
2026-05-08 08:29 45.80980 15.94350 25099 ft 270 kts 188°
2026-05-08 08:29 45.79102 15.94233 25100 ft 270 kts 188°
2026-05-08 08:30 45.77224 15.94115 25100 ft 270 kts 188°
2026-05-08 08:30 45.75374 15.93997 25101 ft 270 kts 188°
2026-05-08 08:30 45.71628 15.93759 25101 ft 269 kts 188°
2026-05-08 08:31 45.69756 15.93641 25101 ft 269 kts 188°
2026-05-08 08:31 45.67886 15.93522 25104 ft 269 kts 188°
2026-05-08 08:31 45.66012 15.93404 25100 ft 269 kts 188°
2026-05-08 08:31 45.64138 15.93286 25096 ft 269 kts 188°
2026-05-08 08:32 45.62265 15.93165 25099 ft 269 kts 188°
2026-05-08 08:32 45.60389 15.93048 25097 ft 269 kts 188°
2026-05-08 08:32 45.58514 15.92932 25098 ft 269 kts 188°
2026-05-08 08:32 45.56663 15.92817 25097 ft 270 kts 188°
2026-05-08 08:33 45.54788 15.92699 25101 ft 270 kts 188°
2026-05-08 08:33 45.52914 15.92580 25098 ft 270 kts 188°
2026-05-08 08:33 45.51036 15.92462 25097 ft 270 kts 188°
2026-05-08 08:33 45.49161 15.92344 25098 ft 270 kts 188°
2026-05-08 08:34 45.47282 15.92227 25096 ft 270 kts 188°
2026-05-08 08:34 45.45405 15.92110 25096 ft 270 kts 188°
2026-05-08 08:34 45.43528 15.91994 25092 ft 270 kts 188°
2026-05-08 08:34 45.41654 15.91876 25094 ft 270 kts 188°
2026-05-08 08:35 45.39779 15.91758 25095 ft 270 kts 188°
2026-05-08 08:35 45.37904 15.91641 25096 ft 270 kts 188°
2026-05-08 08:35 45.36028 15.91524 25096 ft 270 kts 188°
2026-05-08 08:35 45.34150 15.91407 25095 ft 269 kts 188°
2026-05-08 08:36 45.32275 15.91291 25097 ft 269 kts 188°
2026-05-08 08:36 45.30399 15.91175 25097 ft 269 kts 188°
2026-05-08 08:36 45.28524 15.91058 25097 ft 269 kts 188°
2026-05-08 08:36 45.26648 15.90941 25099 ft 270 kts 188°
2026-05-08 08:37 45.24794 15.90826 25089 ft 270 kts 187°
2026-05-08 08:37 45.22916 15.90712 25092 ft 269 kts 187°
2026-05-08 08:37 45.21046 15.90598 25093 ft 269 kts 187°
2026-05-08 08:37 45.19173 15.90497 25096 ft 269 kts 187°
2026-05-08 08:38 45.17302 15.90402 25094 ft 269 kts 187°
2026-05-08 08:38 45.15429 15.90309 25093 ft 269 kts 187°
2026-05-08 08:38 45.13559 15.90216 25094 ft 269 kts 187°
2026-05-08 08:38 45.11685 15.90121 25093 ft 269 kts 187°
2026-05-08 08:39 45.09814 15.90027 25091 ft 269 kts 187°
2026-05-08 08:39 45.08570 15.89963 25090 ft 269 kts 187°
2026-05-08 08:39 45.06698 15.89867 25088 ft 269 kts 187°
2026-05-08 08:39 45.04820 15.89773 25078 ft 269 kts 187°
2026-05-08 08:40 45.02948 15.89677 25079 ft 270 kts 187°
2026-05-08 08:40 45.01068 15.89579 25089 ft 270 kts 187°
2026-05-08 08:40 44.99188 15.89481 25089 ft 270 kts 187°
2026-05-08 08:40 44.97312 15.89385 25087 ft 269 kts 187°
2026-05-08 08:41 44.95435 15.89288 25085 ft 269 kts 187°
2026-05-08 08:41 44.93584 15.89194 25083 ft 269 kts 187°
2026-05-08 08:41 44.91712 15.89098 25086 ft 268 kts 187°
2026-05-08 08:41 44.89848 15.89003 25089 ft 268 kts 187°
2026-05-08 08:42 44.87986 15.88909 25082 ft 267 kts 187°
2026-05-08 08:42 44.86124 15.88814 25088 ft 267 kts 187°
2026-05-08 08:42 44.84259 15.88718 25083 ft 268 kts 187°
2026-05-08 08:42 44.82401 15.88623 25076 ft 267 kts 187°
2026-05-08 08:43 44.80541 15.88528 25077 ft 267 kts 187°
2026-05-08 08:43 44.78685 15.88432 25076 ft 266 kts 187°
2026-05-08 08:43 44.76831 15.88341 25083 ft 266 kts 187°
2026-05-08 08:43 44.74980 15.88247 25081 ft 266 kts 187°
2026-05-08 08:44 44.73148 15.88154 25074 ft 266 kts 187°
2026-05-08 08:44 44.71290 15.88059 25072 ft 266 kts 186°
2026-05-08 08:44 44.69446 15.87965 25076 ft 265 kts 187°
2026-05-08 08:44 44.67599 15.87871 25067 ft 265 kts 187°
2026-05-08 08:45 44.65754 15.87777 25076 ft 265 kts 186°
2026-05-08 08:45 44.63916 15.87684 25079 ft 265 kts 186°
2026-05-08 08:45 44.62075 15.87592 25074 ft 265 kts 186°
2026-05-08 08:45 44.60235 15.87498 25072 ft 264 kts 186°
2026-05-08 08:46 44.58395 15.87405 25077 ft 264 kts 186°
2026-05-08 08:46 44.56575 15.87314 25081 ft 265 kts 186°
2026-05-08 08:46 44.54730 15.87221 25077 ft 265 kts 186°
2026-05-08 08:46 44.52878 15.87127 25013 ft 268 kts 186°
2026-05-08 08:47 44.50985 15.87029 24706 ft 279 kts 186°
2026-05-08 08:47 44.49040 15.86928 24203 ft 269 kts 186°
2026-05-08 08:47 44.47303 15.86852 23676 ft 233 kts 186°
2026-05-08 08:47 44.45765 15.86786 23137 ft 211 kts 185°
2026-05-08 08:48 44.44262 15.86711 22643 ft 229 kts 185°
2026-05-08 08:48 44.42595 15.86619 22220 ft 248 kts 185°
2026-05-08 08:48 44.40833 15.86525 21820 ft 259 kts 185°
2026-05-08 08:48 44.39010 15.86430 21435 ft 265 kts 184°
2026-05-08 08:49 44.37226 15.86341 21030 ft 237 kts 184°
2026-05-08 08:49 44.35539 15.86255 20634 ft 254 kts 184°
2026-05-08 08:49 44.33789 15.86166 20241 ft 250 kts 184°
2026-05-08 08:49 44.32042 15.86078 19776 ft 252 kts 184°
2026-05-08 08:50 44.30291 15.85991 19289 ft 250 kts 183°
2026-05-08 08:50 44.28548 15.85903 18714 ft 250 kts 183°
2026-05-08 08:50 44.26810 15.85815 18112 ft 249 kts 183°
2026-05-08 08:50 44.25084 15.85728 17466 ft 247 kts 183°
2026-05-08 08:51 44.23368 15.85643 16854 ft 246 kts 182°
2026-05-08 08:51 44.21684 15.85557 16284 ft 245 kts 182°
2026-05-08 08:51 44.20016 15.85472 16112 ft 232 kts 182°
2026-05-08 08:51 44.18429 15.85391 16072 ft 231 kts 182°
2026-05-08 08:52 44.16779 15.85310 16064 ft 242 kts 182°
2026-05-08 08:52 44.15111 15.85231 16051 ft 236 kts 182°
2026-05-08 08:52 44.13487 15.85376 16043 ft 233 kts 168°
2026-05-08 08:52 44.12004 15.86245 16043 ft 233 kts 148°
2026-05-08 08:53 44.10628 15.87417 15735 ft 235 kts 152°
2026-05-08 08:53 44.09137 15.88474 15280 ft 244 kts 154°
2026-05-08 08:53 44.07613 15.89496 14835 ft 236 kts 154°
2026-05-08 08:53 44.06168 15.90462 14391 ft 234 kts 153°
2026-05-08 08:54 44.04733 15.91439 13955 ft 225 kts 152°
2026-05-08 08:54 44.03296 15.92436 13479 ft 234 kts 152°
2026-05-08 08:54 44.01865 15.93444 12991 ft 221 kts 152°
2026-05-08 08:54 44.00531 15.94385 12504 ft 214 kts 152°
2026-05-08 08:55 43.99226 15.95314 12027 ft 207 kts 152°
2026-05-08 08:55 43.97964 15.96217 11575 ft 199 kts 152°
2026-05-08 08:55 43.96746 15.97101 11138 ft 201 kts 153°
2026-05-08 08:55 43.95515 15.97988 11080 ft 204 kts 153°
2026-05-08 08:56 43.94210 15.98924 11051 ft 214 kts 153°
2026-05-08 08:56 43.92880 15.99877 11038 ft 215 kts 153°
2026-05-08 08:56 43.91563 16.00815 11029 ft 208 kts 153°
2026-05-08 08:56 43.90251 16.01748 11028 ft 212 kts 152°
2026-05-08 08:57 43.88906 16.02703 11029 ft 222 kts 152°
2026-05-08 08:57 43.87520 16.03654 11026 ft 218 kts 158°
2026-05-08 08:57 43.86051 16.04013 11029 ft 215 kts 181°
2026-05-08 08:57 43.84588 16.03713 11025 ft 214 kts 189°
2026-05-08 08:58 43.83100 16.03312 11011 ft 223 kts 188°
2026-05-08 08:58 43.81582 16.02905 10848 ft 221 kts 188°
2026-05-08 08:58 43.80075 16.02509 10514 ft 220 kts 188°
2026-05-08 08:58 43.78596 16.02120 10097 ft 211 kts 188°
2026-05-08 08:59 43.77178 16.01742 9656 ft 204 kts 188°
2026-05-08 08:59 43.75770 16.01373 9211 ft 211 kts 188°
2026-05-08 08:59 43.74357 16.01004 8779 ft 204 kts 188°
2026-05-08 08:59 43.72941 16.00633 8376 ft 209 kts 189°
2026-05-08 09:00 43.71494 16.00258 8087 ft 209 kts 189°
2026-05-08 09:00 43.70085 15.99894 8053 ft 207 kts 189°
2026-05-08 09:00 43.68703 15.99522 8050 ft 204 kts 189°
2026-05-08 09:00 43.67255 15.99154 8038 ft 217 kts 189°
2026-05-08 09:01 43.65841 15.98783 8022 ft 208 kts 189°
2026-05-08 09:01 43.64409 15.98409 7948 ft 204 kts 189°
2026-05-08 09:01 43.63016 15.98043 7851 ft 204 kts 189°
2026-05-08 09:01 43.61601 15.97674 7576 ft 211 kts 189°
2026-05-08 09:02 43.60144 15.97298 7233 ft 208 kts 189°
2026-05-08 09:02 43.58795 15.96944 6757 ft 193 kts 189°
2026-05-08 09:02 43.57470 15.96600 6216 ft 194 kts 189°
2026-05-08 09:02 43.56135 15.96247 5657 ft 197 kts 189°
2026-05-08 09:03 43.54791 15.95894 5143 ft 197 kts 188°
2026-05-08 09:03 43.53463 15.95549 4654 ft 196 kts 188°
2026-05-08 09:03 43.52212 15.95228 4123 ft 170 kts 187°
2026-05-08 09:03 43.51142 15.94961 4035 ft 145 kts 187°
2026-05-08 09:04 43.50218 15.94730 4015 ft 126 kts 187°
2026-05-08 09:04 43.49412 15.94477 3993 ft 113 kts 194°
2026-05-08 09:04 43.48681 15.94349 4016 ft 104 kts 162°
2026-05-08 09:04 43.48083 15.94864 4020 ft 96 kts 141°
2026-05-08 09:05 43.47606 15.95367 3726 ft 88 kts 144°
2026-05-08 09:05 43.47105 15.95947 3730 ft 87 kts 139°
2026-05-08 09:05 43.46697 15.96490 3867 ft 78 kts 136°
2026-05-08 09:05 43.46305 15.97091 3828 ft 91 kts 117°
2026-05-08 09:06 43.46396 15.97896 3739 ft 95 kts 22°
2026-05-08 09:06 43.46644 15.97844 809 ft 48 kts 325°